Regional Weather Roundup
Issued by NWS

Home | Current Version | Previous Version | Text Only | Print | Product List | Glossary On
Versions: 1 2 3 4 5 6 7 8 9 10 11 12 13 14 15 16 17 18 19 20 21 22 23 24 25 26 27 28
000
ASUS46 KSEW 270710
RWRWA

WASHINGTON REGIONAL WEATHER ROUNDUP
NATIONAL WEATHER SERVICE SEATTLE WA
1200 AM PDT FRI APR 27 2018

NOTE:"FAIR" INDICATES FEW OR NO CLOUDS BELOW 12,000 FEET WITH NO
SIGNIFICANT WEATHER AND/OR OBSTRUCTIONS TO VISIBILITY.

WAZ507-509-555>559-270800-
SEATTLE, TACOMA, EVERETT, AND VICINITY

CITY           SKY/WX    TMP DP  RH WIND       PRES   REMARKS
EVERETT        CLEAR     54  46  74 NW8       29.89S
BOEING FIELD   CLEAR     62  42  47 NW8       29.89R
RENTON         CLEAR     62  47  57 S7        29.88R
SEATAC AIRPORT CLEAR     54  48  80 S9        29.90R
JBLM-MCCHORD   CLEAR     53  52  99 CALM      29.92R
PUYALLUP       FAIR      54  50  87 CALM      29.92R
BREMERTON      CLEAR     48  46  93 SW5       29.91R
JBLM-FT LEWIS  CLEAR     52  52  99 SW5       29.91S
TACOMA NARROWS CLEAR     51  48  89 SW7       29.92R
$$

WAZ001-503-506-510-514-515-270800-
NORTH INTERIOR

CITY           SKY/WX    TMP DP  RH WIND       PRES   REMARKS
BELLINGHAM     CLEAR     52  48  86 CALM      29.88S
FRIDAY HARBOR  CLEAR     46  42  86 CALM      29.89F
EASTSOUND      CLEAR     54  41  62 CALM      29.87S
PORT ANGELES   CLOUDY    48  48 100 NW7       29.92S FOG
EDIZ HOOK      CLOUDY    48  47  96 W17       29.92R
PORT TOWNSEND  FAIR      52  46  82 CALM      29.90R
NAS WHIDBEY    PTCLDY    51  47  86 SW7       29.94S
ARLINGTON      CLEAR     53  45  74 NW8       29.89R
BURLINGTON     CLEAR     50  43  76 CALM      29.89S
$$

WAZ020-022-039-040-504-511-512-270800-
SOUTHWEST INTERIOR

CITY           SKY/WX    TMP DP  RH WIND       PRES   REMARKS
SHELTON        CLOUDY    52  48  86 SW16G23   29.91R
OLYMPIA        CLEAR     49  47  93 S7        29.92R
CHEHALIS       CLOUDY    54  50  87 CALM      29.94F
KELSO          CLOUDY    52  48  86 CALM      29.93F
VANCOUVER      MOCLDY    55  50  83 VRB6      29.90R
SCAPPOOSE, OR  CLOUDY    55  49  80 N8        29.89R
PORTLAND, OR   MOCLDY    56  49  77 W9        29.91R
$$

WAZ021-516-517-270800-
WASHINGTON COAST

CITY           SKY/WX    TMP DP  RH WIND       PRES   REMARKS
FORKS          CLOUDY    50  48  93 CALM      29.94F
HOQUIAM        CLOUDY    51  49  92 W6        29.96S
ASTORIA, OR    CLOUDY    51  50  96 SW5       29.95R
$$

WAZ019-023-024-040-567>569-270800-
CASCADE MOUNTAINS AND COLUMBIA GORGE

CITY           SKY/WX    TMP DP  RH WIND       PRES   REMARKS
STAMPEDE PASS  NOT AVBL
TROUTDALE, OR  PTCLDY    57  50  77 W7        29.90R
HOOD RIVER, OR SUNNY     54  43  66 CALM      29.89S HAZE
THE DALLES, OR CLEAR     56  43  61 E8        29.88S
$$

WAZ026-027-041>044-520-521-270800-
EAST SLOPES

CITY           SKY/WX    TMP DP  RH WIND       PRES   REMARKS
OMAK           CLEAR     51  37  58 NW6       29.97S
WENATCHEE      CLEAR     57  38  48 W7        29.95S
ELLENSBURG     CLEAR     54  37  52 CALM      29.95F
YAKIMA         CLEAR     53  39  59 W8        29.93S
SUNNYSIDE ARPT SUNNY     48  40  73 CALM      29.90S
YAKIMA TC      FAIR      52  33  48 E6        29.92S
$$

WAZ028-034-035-270800-
COLUMBIA BASIN

CITY           SKY/WX    TMP DP  RH WIND       PRES   REMARKS
EPHRATA        CLEAR     62  34  35 NW8       29.92F
MOSES LAKE     CLEAR     53  39  59 N9        29.93F
PASCO          CLEAR     56  46  69 E6        29.88S
RICHLAND ARPT  SUNNY     58  41  54 NW3       29.88S
HERMISTON, OR  CLEAR     53  48  83 SE5       29.86S
$$

WAZ036>038-270800-
NORTHEAST WASHINGTON

CITY           SKY/WX    TMP DP  RH WIND       PRES   REMARKS
SPOKANE GEIGER CLEAR     59  36  42 NE3       29.96F
SPOKANE FELTS  CLEAR     51  39  63 NE3       29.96F
FAIRCHILD AFB  CLEAR     60  29  31 NE6       29.96F
COEURDALENE,ID CLEAR     49  40  71 SE5       29.98
DEER PARK      CLEAR     49  33  54 CALM      29.97S
$$

WAZ029>033-270800-
SOUTHEAST WASHINGTON

CITY           SKY/WX    TMP DP  RH WIND       PRES   REMARKS
PULLMAN        CLEAR     47  37  68 CALM      29.97F
LEWISTON, ID   CLEAR     60  44  55 CALM      29.92S
WALLA WALLA    CLEAR     60  49  66 E7        29.88F
PENDLETON, OR  CLEAR     55  48  77 SE9       29.89F
$$




USA.gov is the U.S. government's official web portal to all federal, state and local government web resources and services.